Regional Weather Roundup
Issued by NWS

Home | Current Version | Previous Version | Text Only | Print | Product List | Glossary Off
Versions: 1 2 3 4 5 6 7 8 9 10 11 12 13 14 15 16 17 18 19 20 21 22 23 24 25 26 27 28 29 30 31 32 33 34 35 36 37 38 39 40 41 42 43 44 45 46 47 48 49 50

000
ASUS45 KSLC 010910
RWRUT

UTAH REGIONAL WEATHER ROUNDUP
NATIONAL WEATHER SERVICE SALT LAKE CITY UT
300 AM MDT WED APR 01 2015

UTZ001>011-023>025-011000-

NORTHERN UTAH

CITY           SKY/WX    TMP DP  RH WIND       PRES   REMARKS
BRIGHAM CITY   MOCLDY    47  19  33 NW12      30.01R
HILL AFB       CLOUDY    45  22  39 NW24      30.00R
LOGAN          CLEAR     44  22  41 NW10      29.99R
OGDEN          CLOUDY    45  22  40 NW22G29   30.00R
PROVO AIRPORT  CLOUDY    52  30  43 NW28G38   29.92R
SALT LAKE CITY MOCLDY    48  25  40 N20       30.01R
VERNAL         PTCLDY    47  23  38 VRB3      29.80R
WENDOVER       CLOUDY    45  21  39 N23G31    30.04R
HEBER CITY     CLOUDY    50  28  43 N8        29.90R
WEST JORDAN    PTCLDY    46  28  49 N9        30.01R

$$

UTZ012>022-026-027-011000-

SOUTHERN/CENTRAL UTAH

CITY           SKY/WX    TMP DP  RH WIND       PRES   REMARKS
BLANDING       PTCLDY    52  22  31 SW6       30.00S
BRYCE CANYON   CLEAR     30  21  69 VRB3      30.01F
CEDAR CITY     PTCLDY    47  18  31 W5        29.91R
DELTA          PTCLDY    49  27  43 N12       29.93R
HANKSVILLE     CLEAR     54  21  28 W7        29.83S
MILFORD        MOCLDY    55  14  19 CALM      29.90R
MOAB/CYNLANDS  CLEAR     54  19  25 SW10      29.79S
PRICE          PTCLDY    55  17  22 W9        29.85R
ST GEORGE      PTSUNNY   61  27  27 CALM      29.84R
KANAB          CLEAR     43  28  56 CALM      29.96S

$$

REGIONAL REPORTS     COLORADO/ARIZONA

CITY           SKY/WX    TMP DP  RH WIND       PRES   REMARKS
CRAIG, CO      PTCLDY    40  28  62 NW7       29.82F
GRAND JUNCTION PTCLDY    52  19  27 E8        29.81F
RIFLE          CLEAR     43  23  45 E3        29.85S
MONTROSE       CLOUDY    53  24  32 S10       29.92S
CORTEZ         CLEAR     56  25  30 SW13      29.96F
PAGE, AZ       NOT AVBL
GRAND CANYON   CLEAR     40  26  57 SW5       30.05F
KINGMAN        CLEAR     63  22  20 S12       29.90F
FLAGSTAFF      PTCLDY    50  29  44 SW10      30.08S

$$

REGIONAL REPORTS    NEVADA/IDAHO/WYOMING

CITY           SKY/WX    TMP DP  RH WIND       PRES   REMARKS
LAS VEGAS, NV  CLEAR     70  16  12 S12       29.77S
ELY            CLEAR     39  22  50 NW12      30.07R WCI  32
ELKO           MOCLDY    34  21  59 NW7       30.15R WCI  28
POCATELLO, ID  CLEAR     37  21  52 S23G31    30.01R WCI  26
BURLEY         LGT RAIN  37  26  64 W20G28    30.03R WCI  27
EVANSTON, WY   PTCLDY    39  28  64 W10       29.92R WCI  32
ROCK SPRINGS   CLOUDY    48  28  46 SW14      29.84S
KEMMERER       PTCLDY    37  30  75 W17G24    29.89R WCI  28

$$



USA.gov is the U.S. government's official web portal to all federal, state and local government web resources and services.